Starlink 31899

operational
NORAD ID: 59850 Int'l Des: 2024-097 Owner: SPXS Country: US Constellation: starlink
LEOCIRCULAR

About Starlink 31899

Description loading...

Live Position

Loading 3D Globe...

Upcoming Passes

Altitude History

Altitude vs Time

uPlot chart will show altitude changes over time

Two-Line Element Set

1 59850U 24097R 25351.14615754 .00000165 00000-0 15538-4 0 9996
2 59850 43.0021 20.4533 0001577 261.4598 98.6075 15.27590185 89297
Epoch: Dec 17, 2025 • Age: 16 hours

Current Status

Altitude 486.5 km
Velocity 7.63 km/s
Sub-Earth Point 40.04°N, 111.13°E
Launch Date May 23, 2024
Age 1.5 years
Type internet

Technical Details

Classification Payload
Mass 730.00 kg
Dry Mass 700.00 kg
Total Mass 730.00 kg
Length 0.30 m
Diameter 4.10 m
Span 29.00 m
Shape Box + pan
Manufacturer SPXS
Bus Type Starlink V2M
Phase Status In Orbit
Owner/State SPXS/US

Large Constellations

Loading constellations...